Regional Weather Roundup
Issued by NWS Northern Indiana

Home | Current Version | Previous Version | Text Only | Print | Product List | Glossary On
Versions: 1 2 3 4 5 6 7 8 9 10 11 12 13 14 15 16 17 18 19 20 21 22 23 24 25 26 27 28 29 30 31 32 33 34 35 36 37 38 39 40 41 42 43 44 45 46 47 48 49 50
000
ASUS43 KIWX 200810
RWRIWX

KIWX WEATHER ROUNDUP
NATIONAL WEATHER SERVICE NORTHERN INDIANA
400 AM EDT MON OCT 20 2014

NOTE: "FAIR" INDICATES FEW OR NO CLOUDS BELOW 12,000 FEET WITH NO
SIGNIFICANT WEATHER AND/OR OBSTRUCTIONS TO VISIBILITY.

* THESE STATIONS ARE NOT UNDER NWS QUALITY CONTROL. THEY ALSO MAY NOT
  REPORT WEATHER SUCH AS PRECIPITATION OR FOG.

INZ001>027-200900-
NORTHERN INDIANA

CITY           SKY/WX    TMP DP  RH WIND       PRES   REMARKS
GARY*          CLOUDY    53  45  73 S7        29.87F
VALPARAISO     CLOUDY    48  43  82 S9        29.89F
MICHIGAN CITY* CLOUDY    48  41  76 SW13G20   29.88F
LAPORTE*       CLOUDY    50  46  84 SW9       29.90F
KNOX*          CLOUDY    48  42  79 SW9       29.90F
SOUTH BEND     CLOUDY    50  43  77 SW15      29.89F
GOSHEN         CLOUDY    48  43  82 SW12      29.91F
MONTICELLO*    CLOUDY    47  43  88 S7        29.93F
LOGANSPORT*    CLOUDY    46  41  81 SW9       29.95F
ROCHESTER*     CLOUDY    50  45  81 S7        29.93F
WARSAW*        CLOUDY    48  43  81 SW6       29.92F
ANGOLA*        CLOUDY    46  37  71 S6        29.92F
FORT WAYNE     CLOUDY    45  41  86 S7        29.96F
HUNTINGTON*    CLOUDY    47  42  85 SW6       29.95F
PERU/GRISSOM   CLOUDY    48  47  95 SW10      29.94F
MARION*        CLOUDY    47  41  80 SW7       29.97F HAZE

$$
INZ028>050-200900-
CENTRAL INDIANA

CITY           SKY/WX    TMP DP  RH WIND       PRES   REMARKS
LAFAYETTE      CLOUDY    47  42  83 SW5       29.95F
KOKOMO*        CLOUDY    48  41  76 SW13      29.96F
MUNCIE*        CLOUDY    49  42  77 SW7       29.97F
INDIANAPOLIS   CLOUDY    47  42  83 S8        29.99F

$$
MIZ043>046-050>051-056>058-064>065-071>073-077>080-200900-
SOUTHWEST LOWER MICHIGAN

CITY           SKY/WX    TMP DP  RH WIND       PRES   REMARKS
BATTLE CREEK   CLOUDY    48  43  82 SW10      29.87F
BENTON HARBOR  CLOUDY    49  45  86 S8        29.86F
COLDWATER*     LGT RAIN  49  44  84 SW8       29.90F
HILLSDALE*     CLOUDY    48  42  81 S6        29.91F
HOLLAND        CLOUDY    50  47  89 S8        29.83F
GRAND RAPIDS   CLOUDY    50  45  83 S9        29.84F
KALAMAZOO      CLOUDY    48  44  86 S13       29.87F
STURGIS*       CLOUDY    46  43  87 S8        29.90F
THREE RIVERS*  CLOUDY    48  44  87 S9        29.89F

$$
OHZ001>008-015>018-024>025-200900-
NORTHWEST OHIO

CITY           SKY/WX    TMP DP  RH WIND       PRES   REMARKS
WAUSEON*       CLOUDY    48  41  76 SW10      29.93F
DEFIANCE       CLOUDY    48  41  76 S8        29.95F
FINDLAY        CLOUDY    47  42  83 S7        29.97F
TOLEDO EXPRESS CLOUDY    48  39  71 S7        29.94F
TOLEDO METCALF CLOUDY    49  39  68 SW10      29.96F
LIMA           CLOUDY    48  41  76 SW8       29.98F

$$
AND FOR LAKE MICHIGAN COASTAL AND OPEN LAKE BUOY OBSERVATIONS

STATION/POSITION TEMP    WIND        PRES    VSBY  WAVE
                 AIR SEA DIR/SP/G                  HT/PER
                 (F)     (DEG/KT/KT) (MB)    (MI)  (FT/S)
CALUMET HARBOR    52     200/  9/ 15 1010.1F
MICHIGAN CITY     51     170/ 14/ 19   N/A
SAINT JOSEPH      53                 1011.2F
SOUTH LAKE BUOY   55 55  220/ 19/ 25 1009.1F         4/ 6

$$
&&



USA.gov is the U.S. government's official web portal to all federal, state and local government web resources and services.